Location: Austin, TX
(30.3000°N, 97.7500°W)
Time: 18:24:51
(UTC-05:00)

Cosmos 1666 - Visible Passes

Search period start: 24 May 2016 00:00
Search period end: 03 June 2016 00:00
Orbit: 504 x 528 km, 82.5° (Epoch: 23 May)

Date Brightness Start Highest point End Pass type
(mag) Time Alt. Az. Time Alt. Az. Time Alt. Az.
24 May 3.6 21:45:24 10° NNE 21:48:52 30° E 21:49:18 29° E visible
24 May 5.6 23:22:46 10° WNW 23:24:12 12° W 23:24:19 12° W visible
25 May 4.0 21:30:37 10° NNE 21:33:50 24° E 21:34:49 22° ESE visible
25 May 5.3 23:07:04 10° NW 23:09:16 15° W 23:09:52 14° W visible
26 May 4.3 21:15:54 10° NNE 21:18:47 20° ENE 21:20:23 16° ESE visible
26 May 5.1 22:51:36 10° NW 22:54:19 18° W 22:55:25 16° WSW visible
27 May 4.5 21:01:17 10° NE 21:03:45 16° ENE 21:05:58 11° ESE visible
27 May 4.9 22:36:17 10° NW 22:39:21 22° W 22:41:01 17° SW visible
28 May 4.6 22:21:02 10° NNW 22:24:24 28° W 22:26:38 16° SW visible
29 May 4.2 22:05:51 10° NNW 22:09:26 35° W 22:12:17 14° SSW visible
30 May 3.8 21:50:43 10° NNW 21:54:26 44° W 21:57:58 11° SSW visible
31 May 3.3 21:35:37 10° NNW 21:39:27 57° W 21:43:15 10° S visible
01 Jun 2.9 21:20:34 10° N 21:24:27 74° W 21:28:18 10° S visible
02 Jun 2.7 21:05:32 10° N 21:09:27 87° E 21:13:18 10° S visible
